Terminal Aerodrome Forecast
Issued by NWS

Home | Current Version | Previous Version | Text Only | Print | Product List | Glossary On
Versions: 1 2 3 4 5 6 7 8 9 10 11 12 13 14 15 16 17 18 19 20 21 22 23
723
FTUS41 KPBZ 260842 AAA
TAFAGC
TAF AMD
KAGC 260842Z 2609/2706 26009KT P6SM SCT009 BKN012 OVC035
     FM261700 27011KT P6SM BKN025
     FM261900 27011KT P6SM BKN030
     FM270200 20003KT P6SM BKN035=

USA.gov is the U.S. government's official web portal to all federal, state and local government web resources and services.